Home   Weather   Fresno   Past weeks

Flag for USA Past Weather in Fresno, California, USA — Yesterday and Last 2 Weeks

Now
43 °F

Cloudy.


Feels Like: 38 °F
Forecast: 42 / 49 °F
Wind: 8 mph from Northeast

Location: Fresno Air Terminal

Current Time: Jan 23, 2017 at 11:31:07 am

Latest Report: Jan 23, 2017 at 10:53 am


Visibility: 10 mi

Pressure: 29.90 "Hg

Humidity: 89%

Dew Point: 40 °F

Location of FresnoLocation

Past Weather in Fresno — Graph

°F

Fresno Temperature Yesterday

Maximum temperature yesterday: 55 °F (at 9:53 am)
Minimum temperature yesterday: 47 °F (at 3:53 am)
Average temperature yesterday: 51 °F

High & Low Weather Summary for the Past Weeks

 TemperatureHumidityPressure
High70 °F (Jan 8, 3:53 pm)100% (Jan 13, 4:53 am)30.26 "Hg (Jan 13, 4:53 am)
Low33 °F (Jan 17, 4:53 am)44% (Jan 8, 3:53 pm)29.38 "Hg (Jan 20, 2:27 pm)
Average49 °F82%29.99 "Hg
* Reported Jan 8 10:53 am — Jan 23 10:10 am, Fresno, Weather by CustomWeather, © 2017

Note: Actual official high and low records may vary slightly from our data, if they occured in-between our weather recording intervals... More about our weather records

Advertising

Fresno Weather History for the Previous 24 Hours

Scroll right to see more
 ConditionsComfort  
Time TempWeatherWind HumidityBarometerVisibility
10:10 am
Mon, Jan 23
43 °FLight rain. Fog.9 mph89%29.90 "Hg6 mi
9:53 am42 °FLight rain. Fog.13 mph89%29.90 "Hg4 mi
9:27 am42 °FLight rain. Fog.13 mph85%29.89 "Hg2 mi
8:53 am45 °FLight rain. Mostly cloudy.9 mph86%29.86 "Hg10 mi
7:53 am45 °FMore clouds than sun.7 mph86%29.83 "Hg10 mi
6:53 am44 °FMostly cloudy.7 mph89%29.83 "Hg10 mi
5:53 am44 °FOvercast.7 mph89%29.82 "Hg10 mi
4:53 am43 °FMostly cloudy.7 mph89%29.80 "Hg10 mi
3:53 am45 °FOvercast.6 mph90%29.80 "Hg10 mi
2:53 am46 °FPartly cloudy.3 mph89%29.78 "Hg10 mi
1:53 am48 °FLight rain. Mostly cloudy.10 mph86%29.78 "Hg10 mi
12:53 am48 °FLight rain. Mostly cloudy.6 mph93%29.77 "Hg10 mi
11:53 pm
Sun, Jan 22
48 °FPartly cloudy.No wind93%29.78 "Hg10 mi
10:53 pm48 °FLight rain. Mostly cloudy.No wind89%29.76 "Hg10 mi
9:53 pm49 °FLight rain. Mostly cloudy.6 mph90%29.76 "Hg10 mi
8:53 pm50 °FMostly cloudy.9 mph86%29.75 "Hg10 mi
7:53 pm50 °FLight rain. Mostly cloudy.7 mph86%29.74 "Hg10 mi
6:53 pm53 °FMostly cloudy.8 mph89%29.75 "Hg10 mi
5:53 pm54 °FOvercast.10 mph86%29.73 "Hg10 mi
4:53 pm54 °FLight rain. Fog.14 mph90%29.73 "Hg5 mi
3:53 pm53 °FMostly cloudy.12 mph93%29.73 "Hg10 mi
2:53 pm53 °FLight rain. Fog.16 mph89%29.75 "Hg5 mi
2:39 pm53 °FRain. Fog.15 mph89%29.76 "Hg5 mi
2:09 pm53 °FRain. Fog.14 mph89%29.78 "Hg2 mi
1:53 pm53 °FLight rain. Fog.14 mph89%29.78 "Hg5 mi
1:38 pm54 °FLight rain. Fog.14 mph90%29.78 "Hg2 mi
12:53 pm54 °FOvercast.13 mph86%29.80 "Hg10 mi
11:53 am55 °FOvercast.9 mph74%29.84 "Hg10 mi
Weather by CustomWeather, © 2017

See weather overviewHow to use our weather pages